weather.gov     
National Weather Service

Terminal Aerodrome Forecast
NWS Homepage
This page is being discontinued on March 12, 2014.
The same data is available at this site. Please update your bookmarks.
Thank you, and we apologize for the inconvenience.
Please send an email to SR-SRH.Webmaster@noaa.gov with any concerns.


Current Version
Previous Version:    01  02  03  04  05  06  07  08  09  10  11  12  13  14  15  16  17  18  19  20  21  22  23  24  25  26  27  28  29  30  
   31  32  33  34  35  36  37  38  39  
[Printable]
065
FTUS44 KMRX 192321
TAFTYS
TAF
KTYS 192321Z 2000/2024 25006KT P6SM VCTS SCT040CB BKN120
     FM200100 23004KT P6SM SCT050
     FM200800 VRB02KT 6SM BR SCT040 BKN150
     FM201300 23006KT P6SM VCTS SCT040CB BKN120
     FM201700 25011KT P6SM VCTS BKN040CB BKN100=




065
FTUS44 KMRX 192321
TAFTYS
TAF
KTYS 192321Z 2000/2024 25006KT P6SM VCTS SCT040CB BKN120
     FM200100 23004KT P6SM SCT050
     FM200800 VRB02KT 6SM BR SCT040 BKN150
     FM201300 23006KT P6SM VCTS SCT040CB BKN120
     FM201700 25011KT P6SM VCTS BKN040CB BKN100=


U.S. Dept. of Commerce
NOAA National Weather Service
1325 East West Highway
Silver Spring, MD 20910
E-mail: w-nws.webmaster@noaa.gov
Page last modified: May 16, 2007
NATIONAL WEATHER SERVICE: for Safety, for Work, for Fun - FOR LIFE